Location: ??????
(55.2000°N, 38.3000°E)
Time: 01:44:28
(UTC+00:00)

Tsikada Rocket - Pass Details

Date: 15 November 2025
Orbit: 957 x 1008 km, 82.9° (Epoch: 11 December)

Event Time Altitude Azimuth Distance (km) Brightness Sun altitude
Rises 04:13:51 0° 193° (SSW) 3,695 7.2 -6.6°
Reaches altitude 10° 04:16:22 10° 195° (SSW) 2,757 6.5 -6.3°
Maximum altitude 04:22:43 79° 282° (WNW) 1,027 4.1 -5.5°
Drops below altitude 10° 04:29:11 10° 10° (N) 2,798 6.2 -4.6°
Sets 04:31:44 0° 12° (NNE) 3,754 6.9 -4.3°
